Location: Melbourne
(37.8170°S, 144.9670°E)
Time: 23:39:26
(UTC+11:00)

ISS - All Passes

Search period start: 03 March 2015 00:00
Search period end: 13 March 2015 00:00
Orbit: 397 x 407 km, 51.6° (Epoch: 03 March)

Date Brightness Start Highest point End Pass type
(mag) Time Alt. Az. Time Alt. Az. Time Alt. Az.
03 Mar - 03:01:57 10° S 03:03:06 11° SSE 03:04:16 10° SE night (unlit)
03 Mar - 04:37:02 10° SW 04:40:16 43° SE 04:43:27 10° ENE visible
03 Mar - 06:14:10 10° W 06:16:29 17° NW 06:18:42 10° N visible
03 Mar - 21:15:02 10° NNW 21:18:04 34° NE 21:21:09 10° ESE visible
03 Mar - 22:51:40 10° W 22:54:33 26° SSW 22:57:27 10° SSE visible
04 Mar - 03:44:14 10° SSW 03:47:05 25° SSE 03:49:56 10° E night (unlit)
04 Mar - 05:20:30 10° WSW 05:23:35 35° NW 05:26:38 10° NNE visible
04 Mar - 20:22:59 10° N 20:25:10 17° NE 20:27:26 10° E visible
04 Mar - 21:58:09 10° WNW 22:01:22 45° SW 22:04:37 10° SE visible
04 Mar - 23:37:16 10° SW 23:38:31 12° SSW 23:39:44 10° S night (unlit)
05 Mar - 02:51:32 10° SSW 02:53:48 17° SSE 02:56:06 10° ESE night (unlit)
05 Mar - 04:27:15 10° SW 04:30:37 77° NW 04:33:54 10° NE night (unlit)
05 Mar - 21:04:56 10° NW 21:08:15 89° NNE 21:11:38 10° SE visible
05 Mar - 22:42:58 10° WSW 22:45:07 16° SSW 22:47:14 10° SSE visible
06 Mar - 01:58:59 10° S 02:00:25 12° SSE 02:01:53 10° SE night (unlit)
06 Mar - 03:34:13 10° SW 03:37:31 51° SE 03:40:45 10° ENE night (unlit)
06 Mar - 05:11:43 10° W 05:13:39 14° NW 05:15:29 10° NNW night (unlit)
06 Mar - 20:12:04 10° NNW 20:15:12 41° NE 20:18:23 10° ESE visible
06 Mar - 21:49:00 10° W 21:51:46 23° SSW 21:54:31 10° SSE visible
07 Mar - 02:41:18 10° SSW 02:44:16 29° SSE 02:47:14 10° E night (unlit)
07 Mar - 04:17:44 10° WSW 04:20:42 29° NW 04:23:35 10° NNE night (unlit)
07 Mar - 19:19:43 10° N 19:22:12 20° NE 19:24:45 10° E daylight
07 Mar - 20:55:19 10° WNW 20:58:28 38° SSW 21:01:38 10° SE visible
07 Mar - 22:34:46 10° SSW 22:35:41 11° SSW 22:36:33 10° S visible
08 Mar - 01:48:29 10° SSW 01:50:55 19° SSE 01:53:23 10° ESE night (unlit)
08 Mar - 03:24:19 10° SW 03:27:39 63° NW 03:30:55 10° NE night (unlit)
08 Mar - 20:01:55 10° NW 20:05:15 76° SW 20:08:36 10° SE daylight
08 Mar - 21:40:13 10° WSW 21:42:10 14° SSW 21:44:06 10° SSE visible
09 Mar - 00:55:47 10° S 00:57:28 13° SSE 00:59:11 10° SE night (unlit)
09 Mar - 02:31:09 10° SW 02:34:28 62° SE 02:37:46 10° ENE night (unlit)
09 Mar - 04:09:09 10° WNW 04:10:34 12° NW 04:11:50 10° NNW night (unlit)
09 Mar - 19:08:52 10° NNW 19:12:04 50° NE 19:15:20 10° ESE daylight
09 Mar - 20:46:05 10° WSW 20:48:42 21° SSW 20:51:19 10° SSE visible
10 Mar - 00:03:43 10° S 00:03:55 10° SSE 00:04:09 10° SSE night (unlit)
10 Mar - 01:38:06 10° SW 01:41:11 33° SSE 01:44:15 10° E night (unlit)
10 Mar - 03:14:44 10° WSW 03:17:32 24° NW 03:20:15 10° N night (unlit)
10 Mar - 18:16:16 10° N 18:18:58 24° NE 18:21:44 10° ESE daylight
10 Mar - 19:52:14 10° W 19:55:18 33° SSW 19:58:23 10° SE daylight
10 Mar - 21:32:12 10° SSW 21:32:33 10° SSW 21:32:52 10° S visible
11 Mar - 00:45:10 10° SSW 00:47:46 20° SSE 00:50:22 10° ESE night (unlit)
11 Mar - 02:21:08 10° WSW 02:24:24 51° NW 02:27:37 10° NNE night (unlit)
11 Mar - 17:24:42 10° NNE 17:25:53 12° NE 17:27:13 10° ENE daylight
11 Mar - 18:58:40 10° WNW 19:01:57 63° SW 19:05:17 10° SE daylight
11 Mar - 20:37:12 10° SW 20:38:57 13° SSW 20:40:39 10° S visible
11 Mar - 23:52:21 10° SSW 23:54:14 14° SSE 23:56:10 10° SE night (unlit)
12 Mar - 01:27:49 10° SW 01:31:10 74° SE 01:34:29 10° NE night (unlit)
12 Mar - 18:05:26 10° NW 18:08:41 61° NE 18:12:00 10° ESE daylight
12 Mar - 19:42:54 10° WSW 19:45:23 19° SSW 19:47:50 10° SSE daylight
12 Mar - 22:59:49 10° S 23:00:37 11° SSE 23:01:27 10° SSE visible
